Regional Weather Roundup
Issued by NWS Newport/Morehead, NC

Current Version | Previous Version | Graphics & Text | Print | Product List | Glossary On
Versions: 1 2 3 4 5 6 7 8 9 10 11 12 13 14 15 16 17 18 19 20 21 22 23 24 25 26 27 28 29 30 31 32 33 34 35 36 37 38 39 40 41 42 43 44 45 46 47 48 49 50
000 ASUS42 KMHX 232113 RWRMHX WEATHER ROUNDUP FOR EASTERN NORTH CAROLINA NATIONAL WEATHER SERVICE NEWPORT/MOREHEAD CITY NC 500 PM EDT SAT JUL 23 2016 NOTE: "FAIR" INDICATES FEW OR NO CLOUDS BELOW 12,000 FEET WITH NO SIGNIFICANT WEATHER AND/OR OBSTRUCTIONS TO VISIBILITY NCZ015>017-031-032-045>047-102-103-232200- NORTH COAST CITY SKY/WX TMP DP RH WIND PRES REMARKS EDENTON SUNNY 94 73 50 SW8 29.94S HX 103 ELIZABETH CITY SUNNY 92 74 55 S12 29.93F HX 101 KITTY HAWK CLEAR 96 72 45 SW8 29.93F HX 105 MANTEO N/A 91 78 67 SW16 29.94F HX 105 $$ NCZ045>047-081-094-103-104-232200- CENTRAL COAST CITY SKY/WX TMP DP RH WIND PRES REMARKS FRISCO SUNNY 87 76 69 SW13 29.97F $$ NCZ095-097-098-100-101-232200- SOUTHERN COAST CITY SKY/WX TMP DP RH WIND PRES REMARKS BEAUFORT SUNNY 86 77 74 S13 29.98F CEDAR ISLAND NOT AVBL JACKSONVILLE SUNNY 89 74 60 S12 29.96F PINEY ISLAND NOT AVBL WILMINGTON MOSUNNY 88 73 61 S13 29.96F $$ NCZ011>013-027>030-043-044-078>080-089-090>093-098-232200- COASTAL PLAIN CITY SKY/WX TMP DP RH WIND PRES REMARKS AHOSKIE SUNNY 91 76 62 CALM 29.94R HX 102 CLINTON MOSUNNY 94 76 56 CALM 29.95S HX 107 ELIZABETHTOWN LGT RAIN 88 73 62 SE6 29.94F GOLDSBORO MOSUNNY 93 75 56 S6 29.94S HX 104 GREENVILLE MOSUNNY 95 77 55 SW8 29.96S HX 109 HAVELOCK SUNNY 89 72 56 S12 29.98S KENANSVILLE MOSUNNY 91 73 54 CALM 29.95F KINSTON MOSUNNY 91 73 55 S7 29.96S HX 100 NEW BERN SUNNY 91 72 53 S9 29.97S RICHLANDS MOSUNNY 91 77 63 S9 29.96S HX 104 ROCKY MOUNT SUNNY 93 76 57 S6 29.95S HX 105 WASHINGTON SUNNY 90 74 58 SW6 29.95S WHITEVILLE MOSUNNY 92 75 57 S5 29.95S HX 103 $$ AMZ130-135-150-152-154-156-158-170-250-252-270-ANZ085-086-088-633-658-670-232200- MARINE OBSERVATIONS STATION/POSITION TIME TEMP WIND PRES WAVE SWELL AIR SEA DIR/SP/G HT/PER HT/PER (UTC) (F) (DEG/KT/KT) (MB) (FT/S) (FT/S) CHESAPEAKE LIGHT NOT AVBL 64 E VA BEACH 2050 82 81 210/ 10/ 14 1013.6 3/ 8 2/ 8 DUCK 2000 89 61 220/ 11/ 12 1013.2 2 E DUCK 2011 75 N/A 1/ 8 OREGON INLET 2000 85 85 190/ 18/ 21 1014.5 13E OREGON INLT 2100 83 N/A 2/ 8 2/ 8 HATTERAS CG 2000 86 83 210/ 7/ 14 1015.0 DIAMOND BUOY 2050 85 86 220/ 12/ 14 1015.1 2/ 9 2/ 9 CAPE LOOKOUT 2100 85 220/ 10/ 12 1015.0 BEAUFORT LAB 2000 85 84 210/ 8/ 12 1014.8 30 SE NEW RVR IN 2008 84 85 200/ 8/ 12 1015.6 30 SE NEW RVR IN 2025 85 N/A 2/ 9 27 SE WRIGHTSVLE 2008 84 85 190/ 8/ 12 1015.8 5 SE WRIGHTSVLE 2008 84 84 190/ 14/ 16 1016.1 225 S CAPE HAT 2050 83 88 110/ 4/ 6 1016.3 3/ 9 3/ 9 41 SE CHARLESTON 2050 84 87 160/ 8/ 10 1015.2 2/ 8 2/ 8 $$

USA.gov is the U.S. government's official web portal to all federal, state and local government web resources and services.